GW2953 Weather Reports


Display with metric or nautical units.
time (UTC)temp
F
wind
direction
speed
MPH
gust
MPH
rain 1hr
in
rain 24hr
in
rain mn
in
humidity
%
barometer
mb
20260507172147 70 176 4.0 7.0 0.00 0.00 0.00 72 1018.7
20260507171641 69 177 1.0 8.0 0.00 0.00 0.00 75 1018.8
20260507171139 67 187 3.0 5.0 0.00 0.00 0.00 75 1018.7
20260507170636 67 138 3.0 5.0 0.00 0.00 0.00 78 1018.7
20260507170133 66 161 4.0 5.0 0.00 0.00 0.00 81 1018.8
20260507165628 65 177 1.0 4.0 0.00 0.00 0.00 82 1018.7
20260507165125 66 192 2.0 4.0 0.00 0.00 0.00 80 1018.7
20260507164621 67 176 3.0 7.0 0.00 0.00 0.00 81 1018.5
20260507164118 67 109 3.0 7.0 0.00 0.00 0.00 81 1018.4
20260507163615 67 179 1.0 4.0 0.00 0.00 0.00 79 1018.4
20260507163113 66 59 4.0 7.0 0.00 0.00 0.00 80 1018.5
20260507162608 64 97 2.0 3.0 0.00 0.00 0.00 85 1018.7
20260507162105 63 106 3.0 4.0 0.00 0.00 0.00 84 1018.9
20260507161601 64 82 3.0 4.0 0.00 0.00 0.00 86 1019.0
20260507161058 63 88 2.0 4.0 0.00 0.00 0.00 87 1018.8
20260507160554 62 95 1.0 2.0 0.00 0.00 0.00 88 1018.9
20260507160051 61 70 1.0 3.0 0.00 0.00 0.00 90 1018.9
20260507155546 61 79 3.0 4.0 0.00 0.00 0.00 90 1018.8
20260507155043 61 108 1.0 2.0 0.00 0.00 0.00 90 1019.0
20260507154540 61 66 0.0 1.0 0.00 0.00 0.00 91 1018.7
20260507154037 60 102 0.0 2.0 0.00 0.00 0.00 92 1018.7
20260507153534 59 53 0.0 2.0 0.00 0.00 0.00 93 1018.8
20260507153030 59 151 0.0 1.0 0.00 0.00 0.00 93 1018.8
20260507152526 58 218 0.0 0.0 0.00 0.00 0.00 94 1018.8
20260507152023 58 217 0.0 1.0 0.00 0.00 0.00 96 1018.9
20260507151519 58 117 0.0 1.0 0.00 0.00 0.00 97 1018.8
20260507151016 58 75 0.0 2.0 0.00 0.00 0.00 98 1018.9
20260507150513 57 74 1.0 2.0 0.00 0.00 0.00 98 1018.9
20260507150010 57 99 2.0 3.0 0.00 0.00 0.00 98 1019.0
20260507145504 57 89 0.0 2.0 0.00 0.00 0.00 98 1018.9
20260507145003 57 142 0.0 1.0 0.00 0.00 0.00 98 1018.8
20260507144459 57 51 0.0 3.0 0.00 0.00 0.00 99 1018.9
20260507143956 57 69 2.0 3.0 0.00 0.00 0.00 99 1018.7
20260507143454 56 67 2.0 3.0 0.00 0.00 0.00 99 1018.7
20260507142950 56 164 0.0 1.0 0.00 0.00 0.00 99 1018.7
20260507142446 56 50 0.0 2.0 0.00 0.00 0.00 99 1018.7
20260507141943 55 65 2.0 3.0 0.00 0.00 0.00 99 1018.5
20260507141439 55 89 2.0 3.0 0.00 0.00 0.00 99 1018.5
20260507140936 56 87 1.0 3.0 0.00 0.00 0.00 99 1018.3
20260507140432 56 142 0.0 1.0 0.00 0.00 0.00 99 1018.7
20260507135930 55 61 1.0 3.0 0.00 0.00 0.00 99 1018.2
20260507135427 55 104 0.0 2.0 0.00 0.00 0.00 99 1018.1
20260507134924 55 88 2.0 2.0 0.00 0.00 0.00 99 1018.3
20260507134421 55 233 0.0 1.0 0.00 0.00 0.00 99 1018.1
20260507133917 55 89 0.0 2.0 0.00 0.00 0.00 99 1018.0
20260507133412 55 109 0.0 2.0 0.00 0.00 0.00 99 1018.1
20260507132906 55 218 0.0 0.0 0.00 0.00 0.00 99 1018.0
20260507132401 55 119 0.0 2.0 0.00 0.00 0.00 99 1018.0
20260507131858 55 37 0.0 3.0 0.00 0.00 0.00 99 1017.9
20260507131355 55 86 1.0 3.0 0.00 0.00 0.00 99 1018.0
20260507130852 55 309 0.0 1.0 0.00 0.00 0.00 99 1017.8
20260507130349 54 341 0.0 2.0 0.00 0.00 0.00 99 1018.0
20260507125848 54 89 0.0 2.0 0.00 0.00 0.00 99 1017.9
20260507125345 54 322 0.0 1.0 0.00 0.00 0.00 99 1017.9
20260507124843 54 147 0.0 2.0 0.00 0.00 0.00 99 1017.9
20260507124338 54 158 0.0 1.0 0.00 0.00 0.00 99 1017.9
20260507123837 54 315 0.0 1.0 0.00 0.00 0.00 99 1018.0
20260507123334 54 55 0.0 2.0 0.00 0.00 0.00 99 1017.8
20260507122830 54 60 0.0 2.0 0.00 0.00 0.00 99 1017.9
20260507122325 54 89 0.0 3.0 0.00 0.00 0.00 99 1017.9
20260507121823 54 146 1.0 3.0 0.00 0.00 0.00 99 1017.8
20260507121318 54 349 0.0 3.0 0.00 0.00 0.00 99 1017.9
20260507120814 54 113 0.0 1.0 0.00 0.00 0.00 99 1017.9
20260507120311 54 50 0.0 1.0 0.00 0.00 0.00 99 1017.9
20260507115807 54 324 2.0 2.0 0.00 0.00 0.00 99 1018.0
20260507115306 54 304 0.0 1.0 0.00 0.00 0.00 99 1018.0
20260507114759 54 194 1.0 2.0 0.00 0.00 0.00 99 1018.1
20260507114256 54 166 2.0 3.0 0.00 0.00 0.00 99 1018.0
20260507113754 54 297 0.0 2.0 0.00 0.00 0.00 99 1018.1
20260507113250 54 66 0.0 2.0 0.00 0.00 0.00 99 1018.1
20260507112748 54 61 0.0 1.0 0.00 0.00 0.00 99 1018.0
20260507112244 54 299 0.0 1.0 0.00 0.00 0.00 99 1018.0
20260507111743 54 52 1.0 3.0 0.00 0.00 0.00 99 1018.3
20260507111239 54 52 2.0 3.0 0.00 0.00 0.00 99 1018.2
20260507110735 54 44 2.0 3.0 0.00 0.00 0.00 99 1018.1
20260507110232 54 61 2.0 2.0 0.00 0.00 0.00 99 1018.3
20260507105728 54 37 2.0 3.0 0.00 0.00 0.00 99 1018.2
20260507105225 54 54 2.0 2.0 0.00 0.00 0.00 99 1018.3
20260507104722 54 142 0.0 1.0 0.00 0.00 0.00 99 1018.3
20260507104219 54 69 1.0 2.0 0.00 0.00 0.00 99 1018.4
20260507103714 54 312 0.0 2.0 0.00 0.00 0.00 99 1018.2
20260507103211 53 317 2.0 3.0 0.00 0.00 0.00 99 1018.3
20260507102707 53 236 1.0 2.0 0.00 0.00 0.00 99 1018.3
20260507102204 53 297 1.0 2.0 0.00 0.00 0.00 99 1018.4
20260507101700 53 98 1.0 3.0 0.00 0.00 0.00 99 1018.3
20260507101155 54 53 2.0 3.0 0.00 0.00 0.00 99 1018.5
20260507100653 53 24 1.0 2.0 0.00 0.00 0.00 99 1018.4
20260507100151 54 26 0.0 1.0 0.00 0.00 0.00 99 1018.5
20260507095649 54 50 0.0 1.0 0.00 0.00 0.00 99 1018.7
20260507095145 53 297 0.0 1.0 0.00 0.00 0.00 99 1018.7
20260507094642 53 53 2.0 2.0 0.00 0.00 0.00 99 1018.4
20260507094138 53 317 1.0 2.0 0.00 0.00 0.00 99 1018.4
20260507093636 53 50 0.0 1.0 0.00 0.00 0.00 99 1018.5
20260507093135 53 45 0.0 2.0 0.00 0.00 0.00 99 1018.8
20260507092631 54 15 0.0 1.0 0.00 0.00 0.00 99 1018.7
20260507092127 54 345 0.0 1.0 0.00 0.00 0.00 99 1018.5
20260507091624 54 309 0.0 1.0 0.00 0.00 0.00 99 1018.8
20260507091120 54 142 0.0 2.0 0.00 0.00 0.00 98 1018.7
20260507090616 54 65 1.0 2.0 0.00 0.00 0.00 98 1018.4
20260507090114 54 86 1.0 2.0 0.00 0.00 0.00 98 1018.4
20260507085610 54 309 1.0 2.0 0.00 0.00 0.00 98 1018.8
20260507085107 54 62 0.0 1.0 0.00 0.00 0.00 98 1018.8
20260507084603 54 34 0.0 2.0 0.00 0.00 0.00 98 1018.7
20260507084101 54 309 0.0 1.0 0.00 0.00 0.00 98 1018.7
20260507083556 54 303 1.0 2.0 0.00 0.00 0.00 98 1018.9
20260507083054 54 117 0.0 1.0 0.00 0.00 0.00 98 1018.9
20260507082550 55 70 1.0 2.0 0.00 0.00 0.00 98 1018.8
20260507082047 55 322 0.0 0.0 0.00 0.00 0.00 98 1018.8
20260507081543 55 322 0.0 1.0 0.00 0.00 0.00 98 1018.8
20260507081040 55 316 0.0 2.0 0.00 0.00 0.00 98 1018.8
20260507080535 55 322 0.0 1.0 0.00 0.00 0.00 98 1018.7
20260507080033 55 75 0.0 1.0 0.00 0.00 0.00 98 1018.8
20260507075527 55 43 2.0 3.0 0.00 0.00 0.00 98 1018.9
20260507075024 56 50 0.0 1.0 0.00 0.00 0.00 98 1018.5
20260507074521 55 296 2.0 4.0 0.00 0.00 0.00 98 1018.8
20260507074020 55 107 1.0 2.0 0.00 0.00 0.00 97 1018.9
20260507073515 56 322 0.0 0.0 0.00 0.00 0.00 97 1018.9
20260507073012 56 316 1.0 2.0 0.00 0.00 0.00 97 1018.8
20260507072509 56 272 2.0 3.0 0.00 0.00 0.00 97 1019.0
20260507072001 56 50 2.0 3.0 0.00 0.00 0.00 97 1018.7
20260507071458 56 42 2.0 3.0 0.00 0.00 0.00 97 1018.7
20260507070954 57 350 1.0 2.0 0.00 0.00 0.00 97 1018.8
20260507070452 57 304 0.0 2.0 0.00 0.00 0.00 97 1018.5
20260507065949 57 62 0.0 1.0 0.00 0.00 0.00 96 1018.5
20260507065445 57 61 2.0 3.0 0.00 0.00 0.00 96 1018.5
20260507064942 57 54 1.0 2.0 0.00 0.00 0.00 96 1018.8
20260507064441 57 66 0.0 1.0 0.00 0.00 0.00 96 1018.8
20260507063938 57 41 0.0 1.0 0.00 0.00 0.00 96 1018.5
20260507063435 57 89 0.0 1.0 0.00 0.00 0.00 96 1018.8
20260507062932 57 54 2.0 2.0 0.00 0.00 0.00 96 1018.7
20260507062429 58 145 0.0 2.0 0.00 0.00 0.00 96 1018.7
20260507061926 58 324 1.0 2.0 0.00 0.00 0.00 96 1018.8
20260507061424 58 280 2.0 3.0 0.00 0.00 0.00 96 1018.5
20260507060923 58 235 0.0 1.0 0.00 0.00 0.00 95 1018.5
20260507060419 58 222 1.0 2.0 0.00 0.00 0.00 94 1018.5
20260507055916 58 117 0.0 0.0 0.00 0.00 0.00 94 1018.7
20260507055411 59 343 0.0 3.0 0.00 0.00 0.00 94 1018.4
20260507054908 59 339 1.0 4.0 0.00 0.00 0.00 94 1018.7
20260507054404 59 293 1.0 3.0 0.00 0.00 0.00 94 1018.4
20260507053901 59 308 2.0 3.0 0.00 0.00 0.00 94 1018.4
20260507053359 59 268 2.0 2.0 0.00 0.00 0.00 94 1018.4
20260507052858 59 32 1.0 2.0 0.00 0.00 0.00 93 1018.3
20260507052354 59 49 2.0 3.0 0.00 0.00 0.00 92 1018.7
20260507051851 60 269 1.0 2.0 0.00 0.00 0.00 92 1018.5
20260507051349 60 326 1.0 3.0 0.00 0.00 0.00 92 1018.3
20260507050845 60 12 0.0 2.0 0.00 0.00 0.00 91 1018.4
20260507050342 60 305 0.0 5.0 0.00 0.00 0.00 91 1018.2
20260507045833 60 271 2.0 3.0 0.00 0.00 0.00 91 1018.4
20260507045330 61 299 0.0 1.0 0.00 0.00 0.00 91 1018.2
20260507044827 61 19 2.0 3.0 0.00 0.00 0.00 90 1018.4
20260507044324 61 295 1.0 3.0 0.00 0.00 0.00 89 1018.2
20260507043819 62 317 1.0 2.0 0.00 0.00 0.00 90 1018.2
20260507043316 62 75 1.0 2.0 0.00 0.00 0.00 89 1018.2
20260507042812 62 304 0.0 0.0 0.00 0.00 0.00 89 1018.0
20260507042308 62 310 0.0 3.0 0.00 0.00 0.00 89 1018.0
20260507041806 62 25 0.0 1.0 0.00 0.00 0.00 88 1017.8
20260507041302 62 311 2.0 3.0 0.00 0.00 0.00 88 1017.8
20260507040759 63 260 3.0 3.0 0.00 0.00 0.00 86 1017.6
20260507040255 64 297 0.0 5.0 0.00 0.00 0.00 86 1017.8
20260507035751 64 278 2.0 3.0 0.00 0.00 0.00 84 1017.5
20260507035246 64 313 3.0 4.0 0.00 0.00 0.00 85 1017.7
20260507034744 64 227 3.0 5.0 0.00 0.00 0.00 85 1017.6
20260507034241 64 259 3.0 6.0 0.00 0.00 0.00 84 1017.5
20260507033740 64 229 5.0 8.0 0.00 0.00 0.00 85 1017.3
20260507033237 65 267 6.0 11.0 0.00 0.00 0.00 84 1017.4
20260507032734 65 257 7.0 9.0 0.00 0.00 0.00 83 1017.3
20260507032230 65 258 6.0 10.0 0.00 0.00 0.00 84 1017.3
20260507031727 64 266 5.0 9.0 0.00 0.00 0.00 85 1017.2
20260507031223 66 265 6.0 11.0 0.00 0.00 0.00 82 1017.1
20260507030720 65 255 5.0 11.0 0.00 0.00 0.00 84 1016.9
20260507030218 65 257 7.0 9.0 0.00 0.00 0.00 83 1017.0
20260507025715 65 240 6.0 9.0 0.00 0.00 0.00 85 1016.9
20260507025212 66 239 8.0 12.0 0.00 0.00 0.00 83 1016.8
20260507024710 66 273 7.0 9.0 0.00 0.00 0.00 83 1016.8
20260507024207 66 258 5.0 8.0 0.00 0.00 0.00 83 1016.8
20260507023702 66 252 5.0 11.0 0.00 0.00 0.00 81 1016.7
20260507023200 66 243 6.0 10.0 0.00 0.00 0.00 82 1016.7
20260507022656 67 261 7.0 12.0 0.00 0.00 0.00 80 1016.8
20260507022152 68 263 7.0 9.0 0.00 0.00 0.00 78 1016.7
20260507021649 67 266 6.0 8.0 0.00 0.00 0.00 79 1016.8
20260507021144 68 262 7.0 10.0 0.00 0.00 0.00 78 1016.8
20260507020643 68 246 5.0 10.0 0.00 0.00 0.00 75 1016.7
20260507020138 68 269 9.0 9.0 0.00 0.00 0.00 79 1016.8
20260507015637 69 259 5.0 9.0 0.00 0.00 0.00 77 1016.8
20260507015134 70 269 4.0 13.0 0.00 0.00 0.00 72 1016.7
20260507014630 70 230 5.0 7.0 0.00 0.00 0.00 74 1016.7
20260507014126 71 284 6.0 14.0 0.00 0.00 0.00 72 1016.9
20260507013624 73 239 5.0 9.0 0.00 0.00 0.00 67 1016.7
20260507013120 73 260 4.0 12.0 0.00 0.00 0.00 66 1016.5
20260507012618 73 277 5.0 9.0 0.00 0.00 0.00 66 1016.7
20260507012113 73 223 4.0 12.0 0.00 0.00 0.00 66 1016.7
20260507011612 73 207 4.0 7.0 0.00 0.00 0.00 66 1016.9
20260507011108 74 242 4.0 10.0 0.00 0.00 0.00 65 1016.8
20260507010603 73 211 6.0 11.0 0.00 0.00 0.00 66 1016.7
20260507010058 73 234 7.0 12.0 0.00 0.00 0.00 66 1016.7
20260507005556 74 208 8.0 12.0 0.00 0.00 0.00 65 1016.9
20260507005052 74 272 5.0 9.0 0.00 0.00 0.00 65 1016.7
20260507004549 74 200 7.0 9.0 0.00 0.00 0.00 65 1016.5
20260507004047 74 230 7.0 11.0 0.00 0.00 0.00 65 1016.8
20260507003542 74 203 6.0 11.0 0.00 0.00 0.00 65 1016.7
20260507003038 74 280 7.0 11.0 0.00 0.00 0.00 65 1016.8
20260507002535 75 233 3.0 6.0 0.00 0.00 0.00 65 1016.7
20260507002030 74 228 7.0 11.0 0.00 0.00 0.00 65 1016.4
20260507001526 75 196 6.0 10.0 0.00 0.00 0.00 63 1016.5
20260507001019 76 283 3.0 6.0 0.00 0.00 0.00 63 1016.5
20260507000515 76 143 0.0 7.0 0.00 0.00 0.00 63 1016.7
20260507000011 75 185 9.0 9.0 0.00 0.00 0.00 63 1016.7
20260506235508 76 212 6.0 8.0 0.00 0.00 0.00 63 1016.5
20260506235004 75 214 2.0 9.0 0.00 0.00 0.00 64 1016.5
20260506234502 75 292 7.0 9.0 0.00 0.00 0.00 64 1016.5
20260506233958 76 165 4.0 8.0 0.00 0.00 0.00 63 1016.4
20260506233455 76 189 5.0 11.0 0.00 0.00 0.00 61 1016.4
20260506232951 76 173 5.0 9.0 0.00 0.00 0.00 62 1016.5
20260506232448 75 202 11.0 11.0 0.00 0.00 0.00 63 1016.5
20260506231944 75 268 4.0 11.0 0.00 0.00 0.00 63 1016.7
20260506231441 75 185 6.0 12.0 0.00 0.00 0.00 62 1016.8
20260506230938 75 223 3.0 11.0 0.00 0.00 0.00 63 1016.8
20260506230434 75 188 4.0 13.0 0.00 0.00 0.00 63 1016.9
20260506225931 75 198 5.0 8.0 0.00 0.00 0.00 64 1017.0
20260506225429 75 172 5.0 8.0 0.00 0.00 0.00 63 1016.8
20260506224925 75 216 5.0 9.0 0.00 0.00 0.00 64 1016.9
20260506224423 75 216 7.0 12.0 0.00 0.00 0.00 63 1017.0
20260506223919 75 227 5.0 11.0 0.00 0.00 0.00 64 1017.0
20260506223414 75 177 4.0 9.0 0.00 0.00 0.00 64 1017.2
20260506222912 75 207 3.0 7.0 0.00 0.00 0.00 64 1017.2
20260506222409 74 185 6.0 13.0 0.00 0.00 0.00 64 1017.3
20260506221906 74 206 3.0 8.0 0.00 0.00 0.00 64 1017.4
20260506221403 75 189 5.0 8.0 0.00 0.00 0.00 64 1017.6
20260506220900 74 215 9.0 11.0 0.00 0.00 0.00 66 1017.4
20260506220355 74 248 3.0 8.0 0.00 0.00 0.00 65 1017.6
20260506215853 74 212 3.0 10.0 0.00 0.00 0.00 64 1017.8
20260506215348 73 185 6.0 11.0 0.00 0.00 0.00 65 1017.6
20260506214844 73 182 5.0 13.0 0.00 0.00 0.00 66 1017.6
20260506214341 73 177 7.0 10.0 0.00 0.00 0.00 63 1017.7
20260506213839 73 234 5.0 9.0 0.00 0.00 0.00 64 1017.9
20260506213336 73 217 7.0 13.0 0.00 0.00 0.00 65 1017.8
20260506212833 73 218 5.0 10.0 0.00 0.00 0.00 66 1017.8
20260506212329 73 200 3.0 9.0 0.00 0.00 0.00 67 1018.0
20260506211825 72 189 4.0 12.0 0.00 0.00 0.00 66 1018.0
20260506211321 72 196 3.0 9.0 0.00 0.00 0.00 67 1017.9
20260506210818 72 171 6.0 9.0 0.00 0.00 0.00 66 1018.1
20260506210315 71 193 4.0 14.0 0.00 0.00 0.00 68 1018.0
20260506205812 71 187 7.0 17.0 0.00 0.00 0.00 68 1018.1
20260506205308 71 221 8.0 13.0 0.00 0.00 0.00 67 1018.2
20260506204805 71 189 5.0 12.0 0.00 0.00 0.00 66 1018.2
20260506204303 71 219 13.0 13.0 0.00 0.00 0.00 67 1018.1
20260506203800 71 237 4.0 11.0 0.00 0.00 0.00 67 1018.2
20260506203257 71 205 9.0 11.0 0.00 0.00 0.00 67 1018.3
20260506202754 71 192 5.0 11.0 0.00 0.00 0.00 67 1018.2
20260506202251 71 192 7.0 13.0 0.00 0.00 0.00 66 1018.3
20260506201747 71 184 12.0 12.0 0.00 0.00 0.00 66 1018.4
20260506201244 71 207 7.0 13.0 0.00 0.00 0.00 66 1018.5
20260506200741 70 169 5.0 12.0 0.00 0.00 0.00 65 1018.4
20260506200238 70 215 8.0 10.0 0.00 0.00 0.00 68 1018.5
20260506195734 70 169 6.0 9.0 0.00 0.00 0.00 67 1018.7
20260506195230 71 188 2.0 9.0 0.00 0.00 0.00 64 1018.9
20260506194722 70 159 5.0 10.0 0.00 0.00 0.00 65 1018.8
20260506194218 71 196 5.0 8.0 0.00 0.00 0.00 68 1018.9
20260506193717 71 171 3.0 7.0 0.00 0.00 0.00 63 1018.9
20260506193213 71 180 4.0 8.0 0.00 0.00 0.00 66 1018.7
20260506192709 70 171 7.0 8.0 0.00 0.00 0.00 66 1018.9
20260506192206 70 183 3.0 9.0 0.00 0.00 0.00 67 1019.0
20260506191657 71 188 4.0 6.0 0.00 0.00 0.00 66 1019.0
20260506191153 69 197 3.0 6.0 0.00 0.00 0.00 67 1019.2
20260506190651 69 173 5.0 7.0 0.00 0.00 0.00 67 1018.9
20260506190147 69 170 3.0 5.0 0.00 0.00 0.00 69 1019.0
20260506185645 70 163 5.0 7.0 0.00 0.00 0.00 68 1019.2
20260506185140 68 122 1.0 6.0 0.00 0.00 0.00 66 1019.4
20260506184638 68 125 2.0 3.0 0.00 0.00 0.00 65 1019.5
20260506184135 68 189 2.0 7.0 0.00 0.00 0.00 66 1019.5
20260506183632 68 136 4.0 7.0 0.00 0.00 0.00 67 1019.4
20260506183128 67 122 4.0 8.0 0.00 0.00 0.00 69 1019.5
20260506182626 67 211 3.0 7.0 0.00 0.00 0.00 67 1019.5
20260506182122 67 189 4.0 7.0 0.00 0.00 0.00 68 1019.6
20260506181620 67 159 3.0 5.0 0.00 0.00 0.00 69 1019.6
20260506181117 68 195 2.0 5.0 0.00 0.00 0.00 67 1019.8
20260506180614 67 73 4.0 6.0 0.00 0.00 0.00 72 1019.5
20260506180110 66 157 4.0 5.0 0.00 0.00 0.00 72 1019.6
20260506175607 66 183 4.0 7.0 0.00 0.00 0.00 69 1019.8
20260506175103 67 169 2.0 11.0 0.00 0.00 0.00 71 1019.6
20260506174602 66 158 3.0 6.0 0.00 0.00 0.00 71 1019.9
20260506174057 66 144 3.0 5.0 0.00 0.00 0.00 73 1019.9
20260506173556 67 44 0.0 5.0 0.00 0.00 0.00 69 1019.9
20260506173052 65 181 0.0 10.0 0.00 0.00 0.00 73 1019.9
20260506172550 65 257 2.0 7.0 0.00 0.00 0.00 73 1020.0